POLYTECH-UNIVERSE 3 (R*)

Last updated on Tue May 13 2025 00:03:03 GMT+0000 (Coordinated Universal Time)

1 57191U 23091AB 25132.59086567 .00005237 00000+0 28942-3 0 9991 2 57191 97.5596 187.9801 0018806 80.1180 280.2173 15.14184669103238
UTC large
Height (km)
Speed (km/s)
/
Latitude / Longitude
Inclination (degrees)
Orbital Period (minutes)
Azimuth
Elevation
Range (km)
Doppler Factor

Next 0 passes for location: London (51.5072 / 0.1276)

Sorry there are no passes over London.